Wind_Speed
16 16 16 15 15 14 13 13 12 11 10 10 10 10 10 10 11 10 11 11 11 11 12 12 13 13 13 14 14 15 15 15 15 15 15 15 15 16 16 16 16 16 17
17 16 16 16 15 15 14 14 13 12 12 11 11 12 12 12 12 12 13 13 13 13 14 14 15 15 15 16 16 16 16 17 17 17 17 17 17 18 18 18 18 18 18
19 18 18 17 17 16 15 15 15 14 13 13 13 13 13 13 14 14 14 15 15 15 16 16 17 17 17 17 18 18 18 18 19 19 19 19 19 19 20 20 20 20 20
21 20 19 19 18 18 17 17 16 16 16 15 15 15 15 15 15 16 16 17 17 17 17 18 18 18 19 19 20 20 20 20 20 20 20 20 21 21 21 21 21 22 22
22 22 21 20 20 19 19 19 18 17 17 17 17 17 17 17 18 18 18 18 19 19 19 20 20 20 20 21 21 22 22 22 22 22 22 22 22 22 23 23 23 23 24
24 23 22 22 22 21 21 20 20 19 19 19 18 18 19 19 19 20 20 20 20 21 21 21 21 22 22 22 22 23 23 23 23 23 24 24 24 24 25 25 26 26 26
25 24 24 23 23 23 22 22 21 21 21 20 20 20 20 21 21 21 21 22 22 22 22 22 23 23 23 23 24 24 25 25 25 25 26 26 26 27 27 27 28 28 28
27 26 25 25 24 24 24 23 23 22 22 22 22 22 22 22 22 22 22 22 23 23 23 23 24 24 24 25 25 26 26 26 26 27 27 28 29 29 29 29 30 29 29
29 28 27 27 26 25 25 25 24 24 24 23 23 23 23 23 23 23 23 24 24 24 24 24 24 25 25 26 27 27 28 28 28 28 29 30 31 31 32 32 31 31 31
30 29 29 28 27 26 26 25 25 24 24 24 24 24 24 24 24 24 25 24 24 24 25 25 25 25 26 27 28 28 29 29 29 30 31 32 33 33 34 33 33 32 32
31 30 30 29 29 27 26 26 25 25 25 25 25 25 25 25 25 25 25 25 25 25 26 26 26 27 28 29 29 30 30 31 31 32 33 34 34 35 35 35 35 34 34
32 31 30 30 29 28 28 27 27 26 26 26 26 25 25 25 25 26 26 26 26 27 27 28 28 29 29 30 31 31 32 33 34 34 35 35 36 36 37 37 37 37 36
32 31 30 30 29 29 28 28 28 28 27 27 27 27 26 27 27 27 27 27 28 28 29 30 30 31 31 32 32 33 34 35 35 36 36 37 37 37 37 37 38 38 38
32 31 30 30 30 30 30 29 29 29 28 28 28 28 27 27 27 28 28 29 30 30 30 31 31 32 33 33 34 35 36 37 37 38 38 38 38 38 38 39 39 39 39
32 32 31 31 31 31 30 30 30 29 29 29 28 28 28 28 28 29 29 30 30 31 31 32 33 33 34 35 35 36 37 38 39 39 39 39 39 39 39 39 39 40 40
33 32 32 32 32 31 31 31 31 30 30 30 29 29 29 29 29 29 30 30 30 31 32 33 33 34 35 36 36 37 38 39 39 39 38 38 39 39 39 39 40 40 41
33 33 33 33 33 32 32 32 32 32 31 31 31 31 30 30 30 30 30 31 32 32 33 34 34 35 36 37 37 38 38 38 39 38 38 39 39 39 39 40 40 42 42
34 33 34 33 33 33 33 33 33 33 32 32 31 31 31 31 31 31 31 32 33 33 34 34 35 36 36 37 37 37 37 37 38 38 38 38 39 39 39 40 41 42 42
34 34 34 34 34 33 33 33 33 33 33 32 32 31 32 32 32 32 32 33 34 34 34 34 35 35 36 36 36 36 37 37 38 38 38 39 39 39 40 40 41 41 42
35 34 34 34 34 33 33 33 33 33 33 32 32 32 32 32 32 33 33 34 34 34 34 34 35 36 36 36 36 36 36 37 38 39 39 39 40 40 40 40 40 41 42
35 34 34 33 33 33 33 32 32 32 32 32 32 32 32 32 33 33 33 34 34 34 35 35 36 36 36 36 36 36 36 38 39 39 39 40 40 40 40 41 41 42 42
34 34 34 33 33 33 32 32 32 32 32 32 32 32 32 33 33 33 34 34 34 35 35 36 36 36 36 36 36 36 37 38 39 39 39 40 40 40 40 41 41 41 42
35 34 33 33 33 33 32 32 32 31 31 31 31 31 32 33 33 33 34 34 34 35 35 35 35 35 36 36 36 37 37 37 37 37 38 39 39 40 40 40 40 40 40
35 34 33 33 33 33 32 32 31 31 31 31 31 32 32 33 33 33 33 34 34 34 34 35 35 35 35 36 37 37 37 37 37 36 36 37 38 38 39 39 39 39 39
35 34 34 33 33 32 32 32 32 31 32 32 32 32 33 33 33 33 33 34 34 34 35 34 34 34 35 36 36 36 36 36 37 36 35 35 36 37 38 38 38 38 38
36 35 34 33 33 33 32 32 32 32 32 32 32 33 33 33 33 33 34 34 34 34 34 34 35 35 35 35 35 35 36 36 36 37 36 35 35 35 36 37 37 37 37
Wind_Direction
241 240 240 241 243 244 245 248 250 251 253 257 260 264 268 272 275 278 282 286 288 289 291 293 294 294 295 296 295 296 298 299 299 299 299 299 298 298 296 294 293 292 292
242 242 241 242 243 246 247 247 249 252 254 258 260 263 267 270 272 276 279 283 285 287 288 289 290 291 293 293 294 295 296 296 296 296 296 295 294 294 293 292 291 290 289
242 242 241 242 243 245 247 248 250 253 255 258 260 263 267 269 272 274 277 280 283 285 287 289 290 290 291 291 292 292 293 293 293 293 293 292 292 292 291 291 290 289 288
241 241 242 242 244 245 248 250 252 254 256 258 260 263 266 268 271 273 275 277 280 282 285 287 288 289 290 290 290 290 290 290 290 290 291 290 290 290 290 290 290 289 288
241 241 242 243 244 246 248 251 253 254 256 259 261 263 266 269 271 273 274 276 278 280 282 284 285 287 287 288 289 289 289 288 288 288 288 288 289 289 289 289 289 289 288
241 241 243 244 246 247 249 251 253 255 257 259 262 264 267 269 270 271 273 275 277 279 281 283 284 285 285 286 286 287 288 288 287 287 287 287 287 288 288 288 288 288 288
240 241 243 244 246 248 250 252 254 256 258 260 262 265 267 268 269 270 272 274 276 278 280 281 283 284 284 285 286 287 288 287 287 287 287 286 286 286 287 287 288 288 287
240 241 243 244 246 248 251 253 254 256 258 261 263 264 266 268 269 271 273 275 276 278 280 281 282 282 283 285 286 287 287 286 286 286 286 286 286 286 286 285 286 286 286
241 242 243 244 246 248 251 253 254 257 259 261 262 264 266 268 270 272 273 275 276 278 279 280 280 282 283 285 286 286 286 286 286 286 286 286 285 285 285 284 284 284 284
242 243 244 245 247 249 251 252 255 257 259 260 262 264 266 268 270 271 273 274 276 277 278 279 280 281 284 285 286 286 286 286 286 286 286 286 285 285 284 284 283 282 282
242 243 244 245 247 248 250 252 254 256 257 259 262 264 266 268 270 271 273 274 276 277 279 280 281 282 284 285 285 286 287 287 287 287 287 287 285 284 283 283 282 281 280
241 242 243 244 246 248 249 252 253 255 257 259 261 263 265 267 269 271 273 274 276 277 279 280 281 283 284 285 286 287 287 288 288 288 288 287 286 284 283 281 281 280 279
241 242 243 244 246 247 249 251 253 255 257 258 260 262 265 267 269 271 273 275 276 278 279 280 282 283 284 285 286 287 287 288 288 289 288 286 285 284 283 282 281 279 279
240 241 242 244 245 247 249 250 252 254 256 258 260 262 265 267 269 272 274 276 277 278 280 281 282 283 284 285 286 287 287 288 288 288 288 286 284 283 283 283 281 279 279
239 240 242 243 245 247 249 251 252 254 256 258 260 262 265 267 270 273 275 277 278 279 280 281 283 284 285 285 286 287 288 288 288 288 288 286 285 284 283 282 281 280 279
240 241 242 244 246 248 250 252 253 255 257 258 260 262 265 268 271 273 275 277 279 280 281 283 284 284 285 286 286 287 288 289 289 288 287 286 286 284 283 282 281 280 279
240 241 243 245 246 248 251 253 254 256 257 259 260 263 265 268 271 274 276 278 279 280 282 283 284 285 286 287 287 287 288 289 289 288 288 287 286 285 283 281 280 280 280
240 242 244 246 248 249 251 253 255 256 258 260 261 262 265 269 272 274 276 278 279 280 282 283 284 286 286 287 288 288 288 289 289 289 289 289 287 286 285 284 282 281 280
241 242 244 247 249 250 252 253 255 256 258 260 262 263 265 269 271 273 276 278 280 281 283 284 285 286 287 287 288 288 288 289 289 290 290 289 289 287 286 286 285 283 282
242 243 245 247 249 251 253 255 256 257 258 260 262 265 268 269 272 274 276 279 280 281 282 284 286 287 287 288 288 288 289 289 290 290 290 290 290 288 288 287 286 285 284
242 244 246 248 249 251 253 256 257 258 259 260 263 265 268 269 271 274 277 279 280 281 282 284 285 287 287 287 287 288 289 290 290 290 290 291 291 290 289 289 288 287 287
243 244 246 248 249 251 253 255 257 257 258 260 263 265 268 271 273 275 277 279 280 281 282 284 285 286 287 287 288 288 289 290 291 291 292 292 292 292 291 290 290 289 289
243 244 246 247 249 250 252 254 256 257 258 261 263 266 269 272 274 276 278 279 280 281 283 284 285 286 287 288 289 290 290 290 291 292 293 294 293 293 293 292 292 291 290
243 244 245 246 248 249 251 253 255 258 259 261 263 266 269 272 275 277 279 280 280 282 283 284 285 286 287 288 289 290 291 293 293 294 294 294 295 294 294 293 293 292 290
242 244 245 245 246 248 251 253 256 258 259 260 263 266 269 272 275 278 280 280 281 282 283 284 285 286 288 289 290 291 293 294 295 295 296 296 296 296 296 295 294 293 292
241 243 245 246 247 248 251 254 256 258 259 261 264 267 270 272 275 278 280 281 281 282 282 283 284 286 288 289 291 291 293 294 295 296 297 298 298 298 298 297 296 295 294
Height
5854 5855 5857 5858 5860 5861 5863 5864 5865 5866 5867 5868 5869 5869 5870 5870 5871 5871 5872 5872 5872 5873 5873 5873 5873 5873 5873 5873 5872 5872 5872 5871 5871 5870 5870 5869 5869 5868 5867 5867 5866 5866 5865
5852 5853 5855 5856 5858 5859 5860 5862 5863 5864 5865 5865 5866 5867 5868 5868 5869 5869 5870 5870 5870 5871 5871 5871 5871 5871 5871 5870 5870 5869 5869 5869 5868 5868 5867 5866 5866 5865 5865 5864 5864 5863 5862
5849 5850 5852 5853 5855 5856 5858 5859 5860 5861 5862 5863 5864 5865 5865 5866 5866 5867 5867 5867 5868 5868 5868 5868 5868 5868 5868 5867 5867 5866 5866 5866 5865 5865 5864 5864 5863 5862 5862 5861 5860 5860 5859
5845 5847 5849 5850 5852 5853 5855 5856 5857 5858 5859 5860 5861 5862 5863 5863 5864 5864 5864 5865 5865 5865 5865 5865 5865 5865 5865 5864 5864 5863 5863 5862 5862 5861 5861 5860 5860 5859 5858 5857 5857 5856 5855
5842 5843 5845 5847 5849 5850 5852 5853 5854 5856 5857 5857 5858 5859 5860 5860 5860 5861 5861 5861 5862 5862 5862 5862 5862 5861 5861 5861 5860 5860 5859 5859 5858 5857 5857 5856 5856 5855 5854 5853 5853 5852 5851
5838 5840 5842 5843 5845 5847 5848 5850 5851 5852 5853 5854 5855 5856 5856 5857 5857 5857 5858 5858 5858 5858 5858 5858 5858 5857 5857 5857 5856 5856 5855 5854 5854 5853 5853 5852 5851 5850 5850 5849 5848 5847 5847
5834 5836 5838 5840 5841 5843 5845 5846 5848 5849 5850 5851 5851 5852 5852 5853 5853 5854 5854 5854 5854 5854 5854 5854 5854 5853 5853 5852 5852 5851 5851 5850 5849 5849 5848 5847 5846 5846 5845 5844 5843 5842 5841
5829 5831 5833 5835 5837 5839 5841 5842 5843 5845 5846 5847 5847 5848 5848 5849 5849 5849 5850 5850 5850 5850 5850 5849 5849 5849 5848 5848 5847 5847 5846 5845 5844 5844 5843 5842 5841 5840 5839 5839 5838 5837 5836
5824 5827 5829 5831 5833 5835 5836 5838 5839 5840 5841 5842 5843 5844 5844 5844 5845 5845 5845 5845 5845 5845 5845 5845 5844 5844 5843 5843 5842 5841 5841 5840 5839 5838 5837 5836 5835 5834 5833 5833 5832 5831 5830
5819 5822 5824 5826 5828 5830 5832 5833 5834 5836 5837 5838 5838 5839 5840 5840 5840 5840 5841 5841 5841 5840 5840 5840 5839 5839 5838 5837 5836 5836 5835 5834 5833 5832 5831 5830 5829 5828 5827 5826 5825 5824 5824
5814 5817 5819 5821 5823 5825 5827 5828 5830 5831 5832 5833 5834 5834 5835 5835 5835 5836 5836 5836 5835 5835 5835 5834 5834 5833 5833 5832 5831 5830 5829 5827 5826 5825 5824 5823 5822 5820 5819 5818 5818 5817 5816
5808 5811 5814 5816 5818 5820 5821 5823 5824 5826 5827 5828 5829 5829 5830 5830 5830 5831 5831 5830 5830 5830 5829 5829 5828 5827 5826 5825 5824 5823 5822 5821 5819 5818 5817 5815 5814 5813 5811 5810 5810 5809 5809
5803 5805 5808 5811 5813 5814 5816 5818 5819 5820 5821 5822 5823 5824 5824 5825 5825 5825 5825 5825 5824 5824 5823 5822 5822 5821 5820 5819 5817 5816 5815 5813 5812 5810 5809 5807 5806 5804 5803 5802 5801 5801 5800
5797 5800 5802 5805 5807 5809 5810 5812 5813 5815 5816 5817 5818 5818 5819 5819 5819 5819 5819 5819 5818 5818 5817 5816 5815 5814 5813 5811 5810 5808 5807 5805 5803 5802 5800 5798 5797 5796 5794 5793 5792 5792 5791
5791 5794 5797 5799 5801 5803 5804 5806 5807 5809 5810 5811 5812 5812 5813 5813 5813 5813 5813 5813 5812 5811 5810 5809 5808 5806 5805 5804 5802 5800 5798 5796 5794 5793 5791 5789 5788 5786 5785 5784 5783 5782 5782
5785 5788 5790 5793 5795 5796 5798 5800 5801 5803 5804 5805 5806 5806 5807 5807 5807 5807 5806 5806 5805 5804 5803 5801 5800 5799 5797 5795 5794 5792 5790 5788 5786 5783 5781 5780 5778 5777 5776 5774 5773 5772 5772
5779 5781 5784 5786 5788 5790 5792 5793 5795 5796 5797 5798 5799 5800 5800 5800 5800 5800 5799 5799 5798 5796 5795 5794 5792 5791 5789 5787 5785 5783 5781 5779 5777 5774 5772 5770 5769 5767 5766 5765 5764 5762 5761
5772 5775 5777 5780 5782 5783 5785 5787 5788 5789 5790 5791 5792 5792 5793 5793 5793 5793 5792 5791 5790 5789 5787 5786 5784 5783 5781 5779 5777 5775 5772 5770 5768 5765 5763 5761 5759 5758 5756 5755 5753 5752 5751
5765 5768 5770 5773 5775 5777 5778 5780 5781 5782 5783 5784 5785 5786 5786 5786 5786 5785 5784 5783 5782 5781 5779 5778 5776 5774 5772 5771 5769 5766 5764 5762 5759 5757 5754 5752 5750 5748 5746 5745 5743 5741 5740
5758 5761 5763 5766 5768 5769 5771 5773 5774 5775 5776 5777 5778 5779 5779 5779 5778 5778 5777 5775 5774 5773 5772 5770 5768 5766 5764 5763 5761 5758 5756 5753 5751 5748 5745 5743 5740 5738 5736 5734 5733 5731 5729
5751 5754 5757 5759 5761 5762 5764 5766 5767 5768 5769 5770 5771 5771 5771 5771 5771 5770 5769 5768 5766 5765 5764 5762 5760 5758 5756 5754 5753 5751 5748 5745 5742 5739 5736 5733 5731 5728 5726 5724 5722 5720 5718
5744 5747 5749 5752 5754 5756 5757 5759 5760 5761 5762 5763 5763 5764 5764 5764 5763 5763 5761 5760 5759 5757 5756 5754 5752 5750 5748 5746 5744 5742 5740 5738 5734 5731 5727 5724 5721 5719 5716 5714 5712 5709 5707
5737 5739 5742 5744 5746 5748 5750 5751 5753 5754 5755 5756 5757 5757 5757 5756 5756 5755 5753 5752 5751 5749 5748 5746 5744 5742 5740 5737 5735 5733 5730 5728 5726 5723 5719 5715 5712 5709 5706 5704 5701 5699 5696
5729 5731 5734 5736 5739 5741 5742 5744 5746 5747 5748 5749 5749 5749 5749 5749 5748 5747 5746 5744 5743 5741 5739 5737 5735 5733 5731 5729 5726 5723 5721 5718 5716 5715 5712 5707 5703 5700 5697 5694 5692 5689 5686
5721 5724 5726 5729 5731 5733 5735 5737 5738 5739 5740 5741 5742 5742 5741 5741 5740 5739 5738 5736 5734 5733 5731 5729 5727 5725 5723 5720 5718 5715 5713 5710 5707 5704 5703 5700 5696 5692 5689 5685 5682 5679 5676
5713 5716 5718 5721 5724 5726 5728 5729 5731 5732 5733 5734 5734 5734 5734 5733 5732 5731 5729 5728 5726 5724 5723 5721 5719 5717 5715 5712 5709 5707 5704 5702 5698 5695 5693 5691 5688 5684 5680 5676 5673 5670 5667